SCP
0 0 0 0 0 0 -0 0 0 0 0 0 -0 0 0 0 0 0 0 -0 -0 -0 -0 -0 -0 -1 -1 -1 -1 -0 -0 -0 -0 -0 -0 -0 -0 -0 -0 0 0 0 0 0 0 0 0 0 0
0 0 0 0 0 -0 0 0 0 0 0 -0 0 0 0 0 0 0 0 0 0 0 0 -0 -0 -0 -1 -1 -1 -0 -0 -0 -0 -0 -0 -0 -0 -0 -0 0 0 0 0 0 0 0 0 0 0
0 0 0 0 0 -0 0 0 0 0 0 -0 0 0 0 0 0 -0 0 0 0 0 0 0 -0 -0 -0 -0 -0 -0 -0 -0 -0 -0 -0 -0 0 0 0 0 0 0 0 0 0 0 0 0 0
0 0 0 0 0 0 0 0 0 0 0 0 0 0 0 0 -0 -0 0 0 0 0 0 0 0 0 -0 -0 -0 -0 -0 -0 -0 -0 0 0 0 0 0 0 0 0 0 0 0 0 0 0 0
0 0 0 0 0 0 -0 -0 0 0 0 -0 0 0 0 0 0 0 0 0 0 0 0 0 0 0 0 0 0 0 0 0 0 0 0 0 0 0 0 0 0 0 0 0 0 0 0 -0 -0
0 0 0 0 0 0 0 0 0 0 0 0 0 0 0 0 0 0 0 0 0 0 1 1 0 0 0 0 0 0 0 0 0 0 0 0 0 0 0 0 0 -0 -0 0 0 -0 -0 -0 -0
0 0 0 0 0 0 0 0 0 0 0 0 0 0 0 -0 0 0 -0 0 0 0 1 1 1 1 1 0 0 0 0 0 0 0 0 0 0 0 0 0 0 0 0 0 0 0 -0 -0 -0
0 0 0 0 0 0 0 0 0 0 0 0 0 0 0 -0 0 0 0 0 0 0 0 1 1 1 1 1 1 1 1 0 0 0 0 0 0 0 0 0 0 0 0 0 0 0 0 0 0
0 0 0 0 0 0 0 0 0 0 0 0 0 0 0 0 1 0 1 1 0 0 0 0 1 1 1 1 1 1 1 1 1 1 0 0 0 0 0 0 0 0 0 0 0 0 0 0 -0
0 0 0 0 0 0 0 0 -0 -0 0 0 0 0 0 0 1 1 0 1 0 0 0 0 0 1 1 1 1 1 1 1 1 1 1 1 0 0 0 0 0 0 0 0 0 -0 -0 0 0
0 0 0 0 0 0 0 0 0 0 0 0 0 0 0 0 0 1 1 1 0 0 0 0 1 1 1 1 2 1 1 1 1 1 1 1 1 0 0 0 0 0 0 0 0 0 0 0 0
0 0 0 0 0 0 0 0 0 0 0 0 0 0 0 0 0 0 0 1 1 1 1 1 1 1 1 2 2 1 1 1 1 1 1 1 1 0 0 0 0 0 0 0 0 0 0 0 0
0 0 0 0 0 0 0 0 0 0 0 0 0 0 0 0 0 0 0 0 0 2 1 1 1 1 1 2 2 1 1 1 1 1 1 1 1 1 0 0 0 0 0 0 0 0 0 0 0
0 0 0 0 0 0 0 0 0 0 0 0 0 0 0 0 0 0 0 0 0 0 1 1 1 1 1 1 1 1 1 1 1 1 1 1 1 1 1 1 0 0 0 0 0 0 0 0 0
0 0 0 0 0 0 0 0 0 0 0 0 0 0 0 0 0 0 0 0 0 0 0 0 1 1 0 1 1 1 1 1 1 1 1 1 1 1 1 1 1 1 0 0 0 0 0 0 0
0 0 0 0 0 0 0 0 0 0 0 0 0 0 0 0 0 0 0 0 0 0 0 0 0 0 0 0 1 1 0 0 0 0 1 1 1 1 1 1 1 1 0 0 0 0 0 0 0
0 0 0 0 0 0 0 0 0 0 0 0 0 0 0 0 0 0 0 0 0 0 0 1 1 1 1 0 0 1 2 1 0 0 0 0 1 1 2 1 1 1 0 0 0 0 0 0 0
0 0 0 0 0 0 0 0 0 0 0 0 0 0 0 0 0 0 0 0 0 0 0 0 0 0 0 0 0 0 1 1 1 1 1 0 0 1 1 1 1 1 1 0 0 0 0 0 0
0 0 0 0 0 0 0 0 0 0 -0 0 0 0 0 0 0 0 0 0 0 0 0 0 0 0 0 0 0 0 1 1 2 2 2 1 1 1 1 1 1 1 1 1 1 1 0 0 0
0 0 0 0 0 0 0 0 0 0 0 0 0 0 0 0 0 0 0 0 0 0 0 0 0 0 0 0 0 0 0 0 0 0 0 1 1 1 1 0 1 1 1 1 1 1 1 1 0
0 0 0 0 0 0 0 0 0 0 0 0 0 0 0 0 0 0 0 0 0 0 0 0 0 0 0 0 0 0 0 0 0 0 0 0 0 0 1 1 1 1 1 1 1 1 1 1 0
0 0 0 0 0 0 0 0 0 0 0 0 0 0 0 0 0 0 0 0 0 0 0 0 0 0 0 0 0 0 0 0 0 0 0 0 0 0 0 0 0 1 1 1 1 1 1 1 1
0 0 0 0 0 0 0 0 0 0 0 0 0 0 0 0 0 0 0 0 0 0 0 0 0 0 0 0 0 0 0 0 0 0 0 0 0 0 0 0 0 0 0 1 2 1 1 1 1
0 0 0 0 0 0 0 0 0 0 0 0 0 0 0 0 0 0 0 0 0 0 0 0 0 0 0 0 0 0 0 0 0 0 0 0 0 0 0 0 0 0 0 0 0 0 0 0 0
0 0 0 0 0 0 0 0 0 0 0 0 -0 0 0 0 0 0 0 0 0 0 0 0 0 0 0 0 0 0 0 0 0 0 0 0 0 0 0 0 0 0 0 0 0 0 0 0 0
0 0 0 0 0 0 0 0 0 0 0 0 0 0 0 0 0 0 0 0 0 0 0 0 0 0 0 0 0 0 0 0 0 0 0 0 0 0 0 0 0 0 0 0 0 0 0 0 0
0 0 0 0 0 0 0 0 0 0 0 0 0 0 0 0 0 0 0 0 0 0 0 0 0 0 0 0 0 0 0 0 0 0 0 0 0 0 0 0 -0 0 0 0 0 0 0 0 0
0 0 0 0 0 0 0 0 0 0 0 0 0 0 0 0 0 0 0 0 0 0 0 0 0 0 0 0 0 0 0 0 0 0 0 0 0 0 0 0 0 -0 -0 -0 0 0 0 0 0
0 0 0 0 0 0 0 0 0 0 0 0 0 0 0 0 0 0 0 0 0 0 0 0 0 0 0 0 0 0 0 0 0 0 0 0 0 0 0 0 0 0 0 -0 -0 -0 0 0 0
0 0 0 0 0 0 0 0 0 0 0 0 0 0 0 0 0 0 0 0 0 0 0 0 0 0 0 0 0 0 0 0 0 0 0 0 0 0 0 0 0 0 0 0 -0 -0 -0 -0 0
Wind_Speed_500mb
20 21 23 8 6 9 5 11 7 15 16 15 6 5 3 10 0 5 43 49 42 57 61 59 53 47 44 43 42 40 37 35 33 34 36 38 39 41 41 38 34 30 26 24 24 26 26 22 21
20 21 7 2 7 4 9 9 11 8 13 14 22 15 8 5 5 25 49 45 47 56 60 59 55 49 45 42 40 39 38 38 39 38 39 40 42 41 39 36 32 27 23 22 22 23 23 21 20
17 17 3 7 5 9 10 9 10 34 40 24 11 8 5 3 25 39 35 35 56 56 58 57 54 51 45 43 40 39 38 39 40 40 40 41 40 39 36 33 30 26 24 23 23 23 23 22 22
9 3 6 7 10 12 13 9 16 27 48 8 17 11 10 1 25 23 35 41 56 53 56 55 54 52 47 44 41 39 37 37 38 39 39 39 37 35 32 29 26 25 24 24 25 24 23 22 21
8 2 5 1 10 11 5 15 24 14 18 16 16 4 7 19 14 28 34 36 43 50 54 55 53 53 49 44 40 38 36 33 35 35 35 36 35 33 31 27 25 23 23 22 21 20 20 21 20
2 5 6 8 11 10 7 17 20 7 23 20 29 16 6 22 28 34 26 24 35 42 52 55 54 53 50 46 42 39 36 34 32 32 32 32 31 31 29 27 25 23 22 20 19 18 18 17 17
9 7 8 7 7 14 3 17 11 13 6 19 49 13 16 34 30 32 27 23 25 43 48 54 55 54 52 49 46 43 40 38 35 34 33 32 29 27 24 23 21 20 20 19 18 17 16 15 14
10 7 6 10 8 13 4 14 14 15 20 14 40 14 16 45 41 40 36 33 32 38 44 48 52 54 55 54 51 48 46 43 41 38 35 32 30 29 28 26 24 21 20 19 18 17 16 15 15
13 4 8 11 9 9 18 17 25 25 25 12 11 28 44 49 49 47 44 43 39 42 40 44 47 50 53 55 54 53 51 48 45 43 40 38 36 35 34 32 30 29 27 25 24 23 22 22 22
11 8 16 11 9 8 12 12 24 12 20 16 27 34 37 39 51 46 46 48 49 45 39 41 44 50 54 55 55 54 52 54 54 52 50 47 42 38 35 34 32 33 33 33 33 32 31 31 28
15 13 11 11 18 14 11 25 29 7 5 4 8 12 25 39 47 45 43 42 38 44 46 45 49 49 54 57 57 57 57 55 56 56 56 52 50 48 47 43 43 42 42 43 42 41 41 39 35
6 22 19 5 31 19 12 23 12 9 16 10 9 7 5 4 23 34 40 43 49 52 55 52 50 48 55 59 59 56 56 55 57 55 55 56 55 55 53 53 45 46 45 48 45 45 44 42 40
6 9 22 35 42 40 41 28 22 31 39 21 11 14 19 19 14 5 14 19 34 42 44 49 53 53 51 53 56 57 56 53 47 45 47 52 58 59 57 58 55 52 53 50 49 48 49 48 46
14 38 36 39 43 32 13 30 15 28 35 33 30 28 23 25 23 27 23 14 22 23 30 37 48 62 56 51 49 52 53 48 44 42 42 43 51 56 59 61 64 62 60 56 53 55 56 55 52
11 9 11 15 32 17 24 17 15 48 37 39 38 37 36 32 31 30 29 30 29 18 28 32 42 55 60 57 47 45 42 36 39 38 41 40 43 47 55 59 64 62 63 61 62 59 57 59 59
2 6 1 10 7 19 21 23 13 37 35 43 47 43 41 39 37 37 32 28 32 24 25 33 36 46 56 56 43 40 37 40 43 45 44 46 42 44 44 46 52 52 56 59 65 65 63 63 64
8 6 8 10 11 4 10 10 19 40 45 50 53 51 46 46 49 44 36 29 33 35 22 27 29 37 48 54 43 44 40 38 35 35 41 45 48 49 47 49 53 56 56 54 60 64 65 67 68
11 7 7 9 3 7 8 15 19 54 38 53 56 58 55 57 57 55 47 42 37 34 27 26 28 32 44 45 41 44 45 47 47 43 41 46 49 51 55 55 58 61 62 62 62 60 66 72 73
7 3 8 8 8 3 14 13 20 36 13 27 38 44 54 52 41 53 47 44 43 38 32 30 37 47 50 53 49 50 52 52 42 47 44 45 49 49 50 53 57 59 67 69 71 73 71 77 79
8 6 11 19 13 13 17 17 17 9 12 30 42 47 45 46 45 52 50 50 48 46 45 43 45 49 50 51 50 51 47 47 46 48 50 50 47 52 56 61 58 62 66 67 70 76 80 78 81
9 8 11 17 11 5 6 10 11 11 13 12 27 43 42 53 55 60 53 53 55 55 58 59 55 57 56 51 46 44 39 30 26 29 34 37 41 43 43 43 40 45 49 58 68 67 70 79 73
13 17 23 12 7 8 5 10 10 13 14 10 26 28 36 40 45 55 59 60 61 67 66 61 58 55 50 45 38 32 26 21 22 29 38 45 46 45 42 42 38 37 46 50 50 53 66 68 70
14 5 13 13 10 5 2 2 14 5 9 14 16 31 38 43 48 55 61 68 72 73 67 58 51 47 41 33 26 20 18 27 35 41 44 46 51 51 45 42 39 33 28 32 43 41 47 57 68
2 2 12 10 7 2 10 11 9 7 10 9 11 27 32 39 34 28 40 65 75 72 64 56 47 37 26 20 18 20 23 28 29 37 41 42 43 44 47 46 44 39 36 34 39 36 37 45 57
7 11 5 6 3 10 5 1 14 9 9 12 13 14 17 19 16 26 47 75 71 65 55 45 35 27 20 18 22 27 30 34 36 36 36 40 43 48 52 51 46 44 40 37 38 35 40 44 48
12 17 11 11 8 7 9 9 8 5 11 14 9 6 15 14 14 44 52 50 49 44 38 33 30 25 24 26 30 31 36 38 37 31 36 41 48 51 53 54 52 44 40 39 42 42 39 39 47
7 8 10 12 5 6 7 13 15 10 16 20 31 30 14 35 52 44 40 40 42 43 42 35 29 29 31 31 32 35 36 40 37 31 36 42 41 42 44 43 38 36 39 36 33 37 40 41 43
7 8 4 5 8 9 7 8 10 5 10 11 13 22 28 8 8 18 33 41 40 35 32 33 32 31 32 32 36 41 40 40 41 41 45 45 46 46 47 46 42 46 42 41 39 33 35 40 43
9 4 8 9 8 10 2 10 9 15 5 3 7 7 14 13 12 8 9 15 29 30 32 34 34 37 39 42 45 45 46 47 47 49 50 51 53 57 53 50 48 50 50 49 48 44 41 40 46
3 5 6 7 8 3 8 11 2 6 9 18 14 16 10 22 23 14 35 35 27 26 33 36 45 53 53 53 52 52 52 53 55 54 55 58 61 63 63 60 58 56 55 58 57 57 55 51 48
Wind_Direction_500mb
305 326 322 325 49 65 279 261 300 323 1 347 123 132 153 53 115 215 151 159 167 169 168 166 165 168 170 169 167 167 168 171 168 163 159 157 155 155 155 156 157 156 154 148 144 142 139 139 138
311 321 329 72 94 62 271 271 261 247 54 72 52 72 37 47 68 137 154 158 173 170 170 169 167 168 172 170 168 167 166 167 164 160 158 157 158 158 159 160 160 159 155 149 147 146 144 147 151
309 316 334 96 113 176 229 243 313 314 325 261 161 71 71 88 125 140 153 163 171 174 170 171 171 169 175 173 171 168 166 166 163 162 160 159 161 161 163 165 165 162 158 155 155 155 155 159 162
318 306 75 97 219 250 213 284 300 315 329 93 118 76 78 301 138 155 157 162 169 174 173 175 175 175 177 177 175 172 170 169 167 166 166 167 168 168 170 172 171 168 167 167 167 164 164 165 168
311 52 57 150 252 259 245 273 293 295 310 150 117 132 100 187 185 156 145 158 172 176 176 178 179 179 181 181 181 179 176 176 175 174 175 177 178 179 180 182 181 178 179 179 177 173 170 170 169
262 81 77 237 248 256 310 292 304 286 338 134 121 117 153 159 163 148 141 149 178 183 180 182 183 184 185 186 187 188 187 185 184 184 187 190 191 191 191 190 190 190 190 191 191 187 183 179 174
147 96 211 224 268 290 211 333 326 298 286 240 144 123 154 162 165 146 141 139 161 186 184 185 188 188 190 192 193 194 194 196 197 196 195 196 200 202 205 205 203 203 205 204 203 204 201 193 185
199 111 184 232 218 262 212 352 318 344 319 141 148 164 178 170 173 163 160 159 166 181 190 193 195 196 196 198 199 201 202 204 205 207 207 207 207 207 207 209 212 217 220 221 221 221 220 212 205
190 88 214 212 194 242 325 23 8 347 356 321 240 178 170 168 180 176 173 172 178 185 190 197 202 205 206 206 206 206 207 210 212 215 217 218 215 215 215 215 214 216 217 222 226 230 230 226 219
164 174 207 205 218 271 317 310 339 344 359 4 103 132 144 173 188 190 188 187 188 192 195 197 204 209 209 211 211 213 213 214 215 218 221 223 225 225 227 227 226 225 225 227 228 230 231 234 232
192 216 169 226 246 297 295 315 327 329 0 21 48 103 144 162 183 197 205 212 216 209 205 207 207 211 213 215 215 217 218 220 222 225 226 228 231 232 231 230 227 230 229 228 232 233 234 234 236
198 244 226 213 253 270 270 285 298 279 252 215 264 271 246 174 160 206 216 215 219 221 215 214 217 217 217 220 220 223 223 225 227 229 232 235 237 238 242 246 242 245 244 245 239 246 248 248 246
226 267 253 252 258 262 270 264 253 278 270 245 260 210 216 236 246 192 166 191 221 236 237 236 231 230 223 225 226 228 230 235 237 238 241 243 247 249 251 252 252 250 255 252 254 251 253 256 256
222 231 255 266 266 266 221 259 226 256 267 258 257 255 245 229 246 252 256 240 191 215 221 229 241 234 226 225 224 231 234 238 242 243 246 252 253 254 256 258 258 257 256 257 259 257 258 258 256
243 216 270 257 263 233 231 262 211 257 250 255 258 258 263 255 249 248 262 269 262 225 208 220 230 236 229 221 218 226 232 230 238 249 248 256 268 269 263 265 265 266 266 266 265 263 262 261 260
358 36 219 273 260 255 171 253 263 261 255 254 258 260 261 262 259 259 256 259 254 254 205 207 215 230 226 217 220 218 223 243 251 252 255 257 268 274 272 273 274 273 271 271 267 264 262 262 261
354 205 190 290 208 216 166 281 270 278 272 263 263 263 261 260 264 253 239 243 247 260 229 202 207 220 220 214 219 225 235 254 261 269 269 272 274 268 271 272 277 280 278 274 271 268 262 263 263
207 207 223 202 245 182 278 265 284 289 268 243 253 260 263 265 268 256 238 237 244 249 239 212 204 193 209 219 221 234 248 260 272 269 274 281 289 286 279 281 285 287 285 281 276 270 268 265 267
185 208 266 260 253 306 254 252 265 286 287 239 242 254 260 262 256 232 232 233 238 228 219 206 199 199 204 209 218 232 245 252 264 263 264 269 277 280 282 282 286 286 286 283 281 277 272 270 268
229 244 267 290 260 168 268 251 248 288 254 239 234 242 243 247 240 231 236 229 223 221 212 207 201 200 201 207 217 227 235 244 253 256 270 278 282 272 271 276 278 281 281 281 280 278 277 272 271
244 204 244 225 292 220 245 280 274 277 283 297 256 249 254 239 229 232 233 218 213 215 209 201 197 196 198 200 207 215 223 238 256 271 278 283 287 286 284 283 282 278 281 278 275 275 277 272 274
252 215 230 238 252 238 134 276 291 272 295 299 280 273 280 287 271 263 253 223 216 210 201 197 196 195 194 199 205 214 229 254 283 295 296 295 299 297 294 290 294 290 284 286 290 289 273 268 265
222 135 213 206 186 134 267 99 266 276 292 287 300 322 324 302 290 277 255 238 214 196 193 189 186 186 192 202 219 245 286 310 311 310 306 302 297 298 302 304 302 296 285 280 277 282 285 275 266
346 24 38 41 93 237 229 172 267 227 228 292 274 323 323 312 304 274 244 219 191 183 180 179 181 185 197 218 246 275 301 307 308 310 305 298 294 295 307 312 314 311 303 296 287 289 279 272 273
105 67 335 329 340 218 255 79 234 265 262 248 270 315 347 327 288 225 199 178 176 172 172 177 190 203 214 248 283 299 307 310 311 311 311 305 297 299 301 308 310 310 310 309 298 295 285 279 279
188 160 160 208 207 247 319 247 239 280 339 323 31 41 116 110 165 152 149 157 165 172 182 196 207 220 242 263 278 288 296 301 302 309 316 310 300 304 307 305 305 310 313 311 301 299 301 301 285
172 173 193 108 19 75 252 300 314 15 24 62 62 53 59 125 138 149 164 180 187 191 197 206 221 239 251 261 274 283 287 292 291 289 301 300 302 311 313 318 316 318 320 320 314 306 298 294 301
124 149 107 11 164 226 265 252 235 46 61 43 54 67 59 130 161 169 174 181 192 204 221 225 230 245 271 280 279 280 277 281 278 282 281 286 291 298 306 311 311 314 327 327 319 313 301 291 288
2 47 60 120 131 160 216 256 232 169 152 12 312 125 96 55 40 236 251 229 222 218 224 241 263 281 284 278 276 273 283 278 273 274 279 283 280 282 288 291 299 303 308 314 317 321 317 305 291
111 105 114 148 215 137 142 268 328 101 29 4 308 293 336 309 302 274 295 281 257 251 251 258 261 255 256 257 261 275 281 271 267 272 285 288 280 279 281 280 286 287 294 302 304 309 311 315 306
Wind_Speed_850mb
20 21 23 8 6 9 5 11 7 15 16 15 6 5 3 10 0 5 43 49 42 57 61 59 53 47 44 43 42 40 37 35 33 34 36 38 39 41 41 38 34 30 26 24 24 26 26 22 21
20 21 7 2 7 4 9 9 11 8 13 14 22 15 8 5 5 25 49 45 47 56 60 59 55 49 45 42 40 39 38 38 39 38 39 40 42 41 39 36 32 27 23 22 22 23 23 21 20
17 17 3 7 5 9 10 9 10 34 40 24 11 8 5 3 25 39 35 35 56 56 58 57 54 51 45 43 40 39 38 39 40 40 40 41 40 39 36 33 30 26 24 23 23 23 23 22 22
9 3 6 7 10 12 13 9 16 27 48 8 17 11 10 1 25 23 35 41 56 53 56 55 54 52 47 44 41 39 37 37 38 39 39 39 37 35 32 29 26 25 24 24 25 24 23 22 21
8 2 5 1 10 11 5 15 24 14 18 16 16 4 7 19 14 28 34 36 43 50 54 55 53 53 49 44 40 38 36 33 35 35 35 36 35 33 31 27 25 23 23 22 21 20 20 21 20
2 5 6 8 11 10 7 17 20 7 23 20 29 16 6 22 28 34 26 24 35 42 52 55 54 53 50 46 42 39 36 34 32 32 32 32 31 31 29 27 25 23 22 20 19 18 18 17 17
9 7 8 7 7 14 3 17 11 13 6 19 49 13 16 34 30 32 27 23 25 43 48 54 55 54 52 49 46 43 40 38 35 34 33 32 29 27 24 23 21 20 20 19 18 17 16 15 14
10 7 6 10 8 13 4 14 14 15 20 14 40 14 16 45 41 40 36 33 32 38 44 48 52 54 55 54 51 48 46 43 41 38 35 32 30 29 28 26 24 21 20 19 18 17 16 15 15
13 4 8 11 9 9 18 17 25 25 25 12 11 28 44 49 49 47 44 43 39 42 40 44 47 50 53 55 54 53 51 48 45 43 40 38 36 35 34 32 30 29 27 25 24 23 22 22 22
11 8 16 11 9 8 12 12 24 12 20 16 27 34 37 39 51 46 46 48 49 45 39 41 44 50 54 55 55 54 52 54 54 52 50 47 42 38 35 34 32 33 33 33 33 32 31 31 28
15 13 11 11 18 14 11 25 29 7 5 4 8 12 25 39 47 45 43 42 38 44 46 45 49 49 54 57 57 57 57 55 56 56 56 52 50 48 47 43 43 42 42 43 42 41 41 39 35
6 22 19 5 31 19 12 23 12 9 16 10 9 7 5 4 23 34 40 43 49 52 55 52 50 48 55 59 59 56 56 55 57 55 55 56 55 55 53 53 45 46 45 48 45 45 44 42 40
6 9 22 35 42 40 41 28 22 31 39 21 11 14 19 19 14 5 14 19 34 42 44 49 53 53 51 53 56 57 56 53 47 45 47 52 58 59 57 58 55 52 53 50 49 48 49 48 46
14 38 36 39 43 32 13 30 15 28 35 33 30 28 23 25 23 27 23 14 22 23 30 37 48 62 56 51 49 52 53 48 44 42 42 43 51 56 59 61 64 62 60 56 53 55 56 55 52
11 9 11 15 32 17 24 17 15 48 37 39 38 37 36 32 31 30 29 30 29 18 28 32 42 55 60 57 47 45 42 36 39 38 41 40 43 47 55 59 64 62 63 61 62 59 57 59 59
2 6 1 10 7 19 21 23 13 37 35 43 47 43 41 39 37 37 32 28 32 24 25 33 36 46 56 56 43 40 37 40 43 45 44 46 42 44 44 46 52 52 56 59 65 65 63 63 64
8 6 8 10 11 4 10 10 19 40 45 50 53 51 46 46 49 44 36 29 33 35 22 27 29 37 48 54 43 44 40 38 35 35 41 45 48 49 47 49 53 56 56 54 60 64 65 67 68
11 7 7 9 3 7 8 15 19 54 38 53 56 58 55 57 57 55 47 42 37 34 27 26 28 32 44 45 41 44 45 47 47 43 41 46 49 51 55 55 58 61 62 62 62 60 66 72 73
7 3 8 8 8 3 14 13 20 36 13 27 38 44 54 52 41 53 47 44 43 38 32 30 37 47 50 53 49 50 52 52 42 47 44 45 49 49 50 53 57 59 67 69 71 73 71 77 79
8 6 11 19 13 13 17 17 17 9 12 30 42 47 45 46 45 52 50 50 48 46 45 43 45 49 50 51 50 51 47 47 46 48 50 50 47 52 56 61 58 62 66 67 70 76 80 78 81
9 8 11 17 11 5 6 10 11 11 13 12 27 43 42 53 55 60 53 53 55 55 58 59 55 57 56 51 46 44 39 30 26 29 34 37 41 43 43 43 40 45 49 58 68 67 70 79 73
13 17 23 12 7 8 5 10 10 13 14 10 26 28 36 40 45 55 59 60 61 67 66 61 58 55 50 45 38 32 26 21 22 29 38 45 46 45 42 42 38 37 46 50 50 53 66 68 70
14 5 13 13 10 5 2 2 14 5 9 14 16 31 38 43 48 55 61 68 72 73 67 58 51 47 41 33 26 20 18 27 35 41 44 46 51 51 45 42 39 33 28 32 43 41 47 57 68
2 2 12 10 7 2 10 11 9 7 10 9 11 27 32 39 34 28 40 65 75 72 64 56 47 37 26 20 18 20 23 28 29 37 41 42 43 44 47 46 44 39 36 34 39 36 37 45 57
7 11 5 6 3 10 5 1 14 9 9 12 13 14 17 19 16 26 47 75 71 65 55 45 35 27 20 18 22 27 30 34 36 36 36 40 43 48 52 51 46 44 40 37 38 35 40 44 48
12 17 11 11 8 7 9 9 8 5 11 14 9 6 15 14 14 44 52 50 49 44 38 33 30 25 24 26 30 31 36 38 37 31 36 41 48 51 53 54 52 44 40 39 42 42 39 39 47
7 8 10 12 5 6 7 13 15 10 16 20 31 30 14 35 52 44 40 40 42 43 42 35 29 29 31 31 32 35 36 40 37 31 36 42 41 42 44 43 38 36 39 36 33 37 40 41 43
7 8 4 5 8 9 7 8 10 5 10 11 13 22 28 8 8 18 33 41 40 35 32 33 32 31 32 32 36 41 40 40 41 41 45 45 46 46 47 46 42 46 42 41 39 33 35 40 43
9 4 8 9 8 10 2 10 9 15 5 3 7 7 14 13 12 8 9 15 29 30 32 34 34 37 39 42 45 45 46 47 47 49 50 51 53 57 53 50 48 50 50 49 48 44 41 40 46
3 5 6 7 8 3 8 11 2 6 9 18 14 16 10 22 23 14 35 35 27 26 33 36 45 53 53 53 52 52 52 53 55 54 55 58 61 63 63 60 58 56 55 58 57 57 55 51 48
Wind_Direction_850mb
305 326 322 325 49 65 279 261 300 323 1 347 123 132 153 53 115 215 151 159 167 169 168 166 165 168 170 169 167 167 168 171 168 163 159 157 155 155 155 156 157 156 154 148 144 142 139 139 138
311 321 329 72 94 62 271 271 261 247 54 72 52 72 37 47 68 137 154 158 173 170 170 169 167 168 172 170 168 167 166 167 164 160 158 157 158 158 159 160 160 159 155 149 147 146 144 147 151
309 316 334 96 113 176 229 243 313 314 325 261 161 71 71 88 125 140 153 163 171 174 170 171 171 169 175 173 171 168 166 166 163 162 160 159 161 161 163 165 165 162 158 155 155 155 155 159 162
318 306 75 97 219 250 213 284 300 315 329 93 118 76 78 301 138 155 157 162 169 174 173 175 175 175 177 177 175 172 170 169 167 166 166 167 168 168 170 172 171 168 167 167 167 164 164 165 168
311 52 57 150 252 259 245 273 293 295 310 150 117 132 100 187 185 156 145 158 172 176 176 178 179 179 181 181 181 179 176 176 175 174 175 177 178 179 180 182 181 178 179 179 177 173 170 170 169
262 81 77 237 248 256 310 292 304 286 338 134 121 117 153 159 163 148 141 149 178 183 180 182 183 184 185 186 187 188 187 185 184 184 187 190 191 191 191 190 190 190 190 191 191 187 183 179 174
147 96 211 224 268 290 211 333 326 298 286 240 144 123 154 162 165 146 141 139 161 186 184 185 188 188 190 192 193 194 194 196 197 196 195 196 200 202 205 205 203 203 205 204 203 204 201 193 185
199 111 184 232 218 262 212 352 318 344 319 141 148 164 178 170 173 163 160 159 166 181 190 193 195 196 196 198 199 201 202 204 205 207 207 207 207 207 207 209 212 217 220 221 221 221 220 212 205
190 88 214 212 194 242 325 23 8 347 356 321 240 178 170 168 180 176 173 172 178 185 190 197 202 205 206 206 206 206 207 210 212 215 217 218 215 215 215 215 214 216 217 222 226 230 230 226 219
164 174 207 205 218 271 317 310 339 344 359 4 103 132 144 173 188 190 188 187 188 192 195 197 204 209 209 211 211 213 213 214 215 218 221 223 225 225 227 227 226 225 225 227 228 230 231 234 232
192 216 169 226 246 297 295 315 327 329 0 21 48 103 144 162 183 197 205 212 216 209 205 207 207 211 213 215 215 217 218 220 222 225 226 228 231 232 231 230 227 230 229 228 232 233 234 234 236
198 244 226 213 253 270 270 285 298 279 252 215 264 271 246 174 160 206 216 215 219 221 215 214 217 217 217 220 220 223 223 225 227 229 232 235 237 238 242 246 242 245 244 245 239 246 248 248 246
226 267 253 252 258 262 270 264 253 278 270 245 260 210 216 236 246 192 166 191 221 236 237 236 231 230 223 225 226 228 230 235 237 238 241 243 247 249 251 252 252 250 255 252 254 251 253 256 256
222 231 255 266 266 266 221 259 226 256 267 258 257 255 245 229 246 252 256 240 191 215 221 229 241 234 226 225 224 231 234 238 242 243 246 252 253 254 256 258 258 257 256 257 259 257 258 258 256
243 216 270 257 263 233 231 262 211 257 250 255 258 258 263 255 249 248 262 269 262 225 208 220 230 236 229 221 218 226 232 230 238 249 248 256 268 269 263 265 265 266 266 266 265 263 262 261 260
358 36 219 273 260 255 171 253 263 261 255 254 258 260 261 262 259 259 256 259 254 254 205 207 215 230 226 217 220 218 223 243 251 252 255 257 268 274 272 273 274 273 271 271 267 264 262 262 261
354 205 190 290 208 216 166 281 270 278 272 263 263 263 261 260 264 253 239 243 247 260 229 202 207 220 220 214 219 225 235 254 261 269 269 272 274 268 271 272 277 280 278 274 271 268 262 263 263
207 207 223 202 245 182 278 265 284 289 268 243 253 260 263 265 268 256 238 237 244 249 239 212 204 193 209 219 221 234 248 260 272 269 274 281 289 286 279 281 285 287 285 281 276 270 268 265 267
185 208 266 260 253 306 254 252 265 286 287 239 242 254 260 262 256 232 232 233 238 228 219 206 199 199 204 209 218 232 245 252 264 263 264 269 277 280 282 282 286 286 286 283 281 277 272 270 268
229 244 267 290 260 168 268 251 248 288 254 239 234 242 243 247 240 231 236 229 223 221 212 207 201 200 201 207 217 227 235 244 253 256 270 278 282 272 271 276 278 281 281 281 280 278 277 272 271
244 204 244 225 292 220 245 280 274 277 283 297 256 249 254 239 229 232 233 218 213 215 209 201 197 196 198 200 207 215 223 238 256 271 278 283 287 286 284 283 282 278 281 278 275 275 277 272 274
252 215 230 238 252 238 134 276 291 272 295 299 280 273 280 287 271 263 253 223 216 210 201 197 196 195 194 199 205 214 229 254 283 295 296 295 299 297 294 290 294 290 284 286 290 289 273 268 265
222 135 213 206 186 134 267 99 266 276 292 287 300 322 324 302 290 277 255 238 214 196 193 189 186 186 192 202 219 245 286 310 311 310 306 302 297 298 302 304 302 296 285 280 277 282 285 275 266
346 24 38 41 93 237 229 172 267 227 228 292 274 323 323 312 304 274 244 219 191 183 180 179 181 185 197 218 246 275 301 307 308 310 305 298 294 295 307 312 314 311 303 296 287 289 279 272 273
105 67 335 329 340 218 255 79 234 265 262 248 270 315 347 327 288 225 199 178 176 172 172 177 190 203 214 248 283 299 307 310 311 311 311 305 297 299 301 308 310 310 310 309 298 295 285 279 279
188 160 160 208 207 247 319 247 239 280 339 323 31 41 116 110 165 152 149 157 165 172 182 196 207 220 242 263 278 288 296 301 302 309 316 310 300 304 307 305 305 310 313 311 301 299 301 301 285
172 173 193 108 19 75 252 300 314 15 24 62 62 53 59 125 138 149 164 180 187 191 197 206 221 239 251 261 274 283 287 292 291 289 301 300 302 311 313 318 316 318 320 320 314 306 298 294 301
124 149 107 11 164 226 265 252 235 46 61 43 54 67 59 130 161 169 174 181 192 204 221 225 230 245 271 280 279 280 277 281 278 282 281 286 291 298 306 311 311 314 327 327 319 313 301 291 288
2 47 60 120 131 160 216 256 232 169 152 12 312 125 96 55 40 236 251 229 222 218 224 241 263 281 284 278 276 273 283 278 273 274 279 283 280 282 288 291 299 303 308 314 317 321 317 305 291
111 105 114 148 215 137 142 268 328 101 29 4 308 293 336 309 302 274 295 281 257 251 251 258 261 255 256 257 261 275 281 271 267 272 285 288 280 279 281 280 286 287 294 302 304 309 311 315 306